OpenBCM V2.0.2 (Linux)

Packet Radio Mailbox

IZ3LSV

[San Dona' di P. JN]

 Login: GUEST





  
LU9DCE > KEPS     08.03.18 18:13l 260 Lines 12879 Bytes #999 (0) @ WW
BID : 33784_LU9DCE
Read: GUEST
Subj: SAT TLE OF 8
Path: IZ3LSV<IR2UBX<EA2RCF<LU9DCE
Sent: 180308/1601Z @:LU9DCE.TOR.BA.ARG.SOAM #:33784 [TORTUGUITAS] FBB7.07
From: LU9DCE@LU9DCE.TOR.BA.ARG.SOAM
To  : KEPS@WW


            __    _  _  ___  ____   ___  ____    ____  ____  ____
           (  )  / )( \/ _ \(    \ / __)(  __)  (  _ \(  _ \/ ___)
           / (_/\) \/ (\__  )) D (( (__  ) _)    ) _ ( ) _ (\___ \
           \____/\____/(___/(____/ \___)(____)  (____/(____/(____/
               ESTACION DE PACKET RADIO - BUENOS AIRES (GF05OM)
                   BOLETINES INFORMATIVOS PROGRAMADOS (BIP)
                    LU9DCE@GMX.COM - RF 147070 @ 1200 BAUD
                           telnet lu9dce.dynu.com
             BBS port 6300 / NODE port 3694 / DXCLUSTER port 9000

+------------------------------------------------------------------------------+
OSCAR 7
1 07530U 74089B   18067.14552181 -.00000023  00000-0  13176-3 0  9999
2 07530 101.6744  36.0330 0012078 169.3052 257.0827 12.53631396981939
OSCAR 11 (UoSAT 2)
1 14781U 84021B   18067.19657417  .00000036  00000-0  10579-4 0  9993
2 14781  97.6629 107.6483 0009762  60.1036 300.1147 14.82985017829472
OSCAR 19 (LUSAT)
1 20442U 90005G   18067.24011642 +.00000020 +00000-0 +23474-4 0  9994
2 20442 098.6019 006.4004 0012933 088.2990 271.9675 14.32888621469374
KITSAT B
1 22825U 93061C   18066.97650706  .00000003  00000-0  19131-4 0  9991
2 22825  98.8515  41.3198 0007367 284.1573  75.8790 14.30023431275108
POSAT 1
1 22826U 93061D   18067.15664567 +.00000012 +00000-0 +22432-4 0  9991
2 22826 098.8456 041.5533 0007847 271.8745 088.1538 14.30354478275065
RADIO ROSTO
1 23439U 94085A   18067.21266144 -.00000040 +00000-0 +63311-4 0  9998
2 23439 064.8162 152.1403 0160701 200.1477 187.8288 11.27566570955182
JAS 2
1 24278U 96046B   18067.44317879 -.00000068  00000-0 -33547-4 0  9995
2 24278  98.5269 280.0243 0350594  12.4660 348.4881 13.53081940 64615
TECHSAT 1B
1 25397U 98043D   18067.24702353 -.00000004 +00000-0 +17429-4 0  9990
2 25397 098.6406 009.4075 0000953 012.1786 347.9416 14.23640950021144
ISS (ZARYA)
1 25544U 98067A   18066.98865741 +.00001582 +00000-0 +31060-4 0  9999
2 25544 051.6426 163.2098 0002802 158.9771 191.4290 15.54195881102775
PCSAT
1 26931U 01043C   18067.25583671 -.00000037 +00000-0 +17676-4 0  9990
2 26931 067.0510 129.8446 0006290 282.7447 077.2951 14.30496162858049
SAUDISAT 1C
1 27607U 02058C   18067.22018093  .00000023  00000-0  23936-4 0  9996
2 27607  64.5559  38.6470 0053357 352.1782   7.8482 14.75425786818068
CUTE-1
1 27844U 03031E   18067.20579531 +.00000049 +00000-0 +41883-4 0  9997
2 27844 098.6895 077.3407 0008832 307.8152 052.2225 14.22098197761800
CUBESAT XI 4
1 27848U 03031J   18067.27783861  .00000029  00000-0  33218-4 0  9992
2 27848  98.6983  77.7750 0008869 318.7745  41.2762 14.21704181761727
MOZHAYETS 4
1 27939U 03042A   18067.48245757  .00000100  00000-0  26402-4 0  9992
2 27939  97.9728 209.3158 0014318 106.9090 327.8913 14.66662515772050
CUBESAT XI 5
1 28895U 05043F   18067.22736178 +.00000139 +00000-0 +35478-4 0  9996
2 28895 097.8932 222.8579 0017419 032.9466 327.2818 14.63515785658879
CUTE-1.7+APD II
1 32785U 08021C   18067.18581146 +.00000190 +00000-0 +26260-4 0  9992
2 32785 097.5525 084.1622 0013533 020.0665 340.1082 14.88072037534085
DELFI C3
1 32789U 08021G   18067.18158914 +.00001168 +00000-0 +84695-4 0  9991
2 32789 097.5247 124.5014 0011062 283.2262 076.7730 15.05793978536487
SEEDS
1 32791U 08021J   18067.10281683  .00000196  00000-0  25489-4 0  9992
2 32791  97.5438  89.2033 0013313   2.1820 357.9454 14.90481911534455
YUBELEINY
1 32953U 08025A   18067.43384377  .00000009  00000-0 -74582-5 0  9999
2 32953  82.4991  75.3369 0020320  71.0269 289.3011 12.43082099444253
PRISM (HITOMI)
1 33493U 09002B   18067.38220338  .00000322  00000-0  34258-4 0  9997
2 33493  98.1400 325.5568 0014133 292.3612  67.6105 14.96094560495273
KKS-1 (KISEKI)
1 33499U 09002H   18067.25889569 +.00000072 +00000-0 +18682-4 0  9991
2 33499 098.3509 245.7671 0008036 251.2552 108.7784 14.75300340489873
SWISSCUBE
1 35932U 09051B   18067.28862960 +.00000136 +00000-0 +41763-4 0  9995
2 35932 098.5288 216.1122 0008332 153.1196 207.0434 14.56127649448710
BEESAT
1 35933U 09051C   18066.36120477 +.00000118 +00000-0 +37669-4 0  9994
2 35933 098.5327 216.6459 0006216 165.7329 194.4045 14.56234972448725
ITUPSAT 1
1 35935U 09051E   18067.38980337  .00000088  00000-0  31427-4 0  9990
2 35935  98.5441 217.9522 0008658 160.5788 199.5740 14.55415962448663
XIWANG-1 (HOPE-1)
1 36122U 09072B   18066.84984379 -.00000026  00000-0  43812-4 0  9996
2 36122 100.0827  86.1988 0007347 351.9720   8.1275 13.16343594395315
TISAT 1
1 36799U 10035E   18067.36788110  .00000432  00000-0  50098-4 0  9994
2 36799  98.0897 201.0161 0012634 173.5953 186.5428 14.90712521415137
JUGNU
1 37839U 11058B   18066.84318612 +.00000332 +00000-0 +35157-4 0  9992
2 37839 019.9614 291.7819 0018903 209.7017 242.4085 14.12611397330912
SRMSAT
1 37841U 11058D   18066.08636301 +.00000309 +00000-0 +24611-4 0  9996
2 37841 019.9731 343.4661 0011946 089.8200 033.1549 14.10599831330350
M-CUBED/EXP-1 PRIME
1 37855U 11061F   18067.24126114  .00001907  00000-0  10519-3 0  9996
2 37855 101.7260  78.1114 0177507  20.9478 339.8889 15.04126421346474
HORYU 2
1 38340U 12025D   18067.10135190 +.00000165 +00000-0 +32362-4 0  9992
2 38340 098.3735 085.3165 0011907 166.7044 193.4480 14.75508146301799
STRAND 1
1 39090U 13009E   18067.21717902 -.00000001 +00000-0 +15200-4 0  9999
2 39090 098.5314 274.8555 0008272 233.3010 126.7416 14.35013355263323
SOMP
1 39134U 13015E   18067.27353666 +.00001212 +00000-0 +67215-4 0  9991
2 39134 064.8626 093.2752 0022176 224.2273 135.7082 15.18867089269198
BEESAT 3
1 39135U 13015F   18067.26354575 +.00000704 +00000-0 +45897-4 0  9998
2 39135 064.8678 105.3711 0027854 246.9145 112.9043 15.16436519268958
BEESAT 2
1 39136U 13015G   18067.26410166 +.00000575 +00000-0 +39901-4 0  9993
2 39136 064.8688 107.8857 0028684 246.6043 113.2065 15.15917649268904
CUBEBUG 1
1 39153U 13018D   18067.25944592 +.00000183 +00000-0 +30985-4 0  9997
2 39153 097.9774 163.1149 0015612 273.1708 086.7717 14.80349482262575
ZACUBE
1 39417U 13066B   18067.16645227  .00000190  00000-0  30285-4 0  9997
2 39417  97.5990 101.1411 0060472 125.3177 235.3712 14.80885272231845
TRITON 1
1 39427U 13066M   18067.05644684  .00000117  00000-0  26930-4 0  9993
2 39427  97.6389  69.7055 0113147 222.8616 136.3729 14.67618440229741
GOMX 1
1 39430U 13066Q   18067.01291660  .00000174  00000-0  41133-4 0  9990
2 39430  97.6883  51.2324 0150275 290.1726  68.3365 14.59034286228393
HUMSAT D
1 39433U 13066T   18067.16096678  .00000410  00000-0  45743-4 0  9995
2 39433  97.6173 127.0125 0032272  60.7522 299.6917 14.91765943233362
50 SAT
1 39436U 13066W   18067.11904128 +.00081778 +00000-0 +91321-3 0  9999
2 39436 097.7115 195.2957 0005905 219.8560 140.2264 15.62491027236316
CUBEBUG 2
1 39440U 13066AA  18067.10651663 +.00000149 +00000-0 +27813-4 0  9995
2 39440 097.6084 088.3161 0081094 162.8117 197.5869 14.75620820229813
FUNCUBE 1
1 39444U 13066AE  18067.14750402 +.00000240 +00000-0 +35936-4 0  9991
2 39444 097.6001 102.5198 0059679 121.2650 239.4429 14.81651698230106
UWE-3
1 39446U 13066AG  18067.03162705  .00000178  00000-0  30268-4 0  9997
2 39446  97.6024  94.2644 0071236 144.7178 215.8779 14.78154156230170
SPROUT
1 39770U 14029E   18067.30639275  .00000743  00000-0  89737-4 0  9991
2 39770  97.8722 169.2378 0009329 171.2238 188.9146 14.86699337205376
UNISAT 6
1 40012U 14033C   18067.46101018  .00000151  00000-0  30022-4 0  9999
2 40012  97.8234 307.3786 0058832 162.4228 197.9035 14.73772479199865
DUCHIFAT 1
1 40021U 14033M   18067.34359293  .00000296  00000-0  36404-4 0  9996
2 40021  97.9173 345.8817 0013658 145.4375 214.7733 14.90215351201936
QB50P1
1 40025U 14033R   18067.25837990 +.00000246 +00000-0 +32364-4 0  9991
2 40025 097.9082 342.8528 0013072 151.4501 208.7434 14.88648443201269
CHUBUSAT 1
1 40300U 14070C   18067.46100987  .00000690  00000-0  33729-4 0  9999
2 40300  97.3710 147.2851 0018503 255.1497 159.7131 15.21413604184966
NUDT-PHONESAT
1 40900U 15049B   18067.26169766 +.00001906 +00000-0 +89261-4 0  9993
2 40900 097.4435 076.6996 0014388 029.3178 330.8862 15.20866417136576
ZDPS 2A
1 40901U 15049C   18067.28831097 +.00000814 +00000-0 +44647-4 0  9995
2 40901 097.4603 075.2186 0014710 034.5342 325.6844 15.16890454136362
ZDPS 2B
1 40902U 15049D   18067.44647299  .00000790  00000-0  43655-4 0  9994
2 40902  97.4495  73.5649 0014657  31.2985 328.9117 15.16695726136379
XW-2A
1 40903U 15049E   18067.35163800  .00001739  00000-0  45464-4 0  9990
2 40903  97.3967 101.1613 0015422  39.8052 320.4322 15.40078226138286
KAITUO 1A
1 40904U 15049F   18067.35482084  .00000610  00000-0  36187-4 0  9998
2 40904  97.4586  72.8312 0015943  32.4761  74.0987 15.14906139136235
OBJECT G
1 40905U 15049G   18067.42033789  .00000398  00000-0  25540-4 0  9995
2 40905  97.4582  71.1396 0016519  25.1428 335.0604 15.13876006136172
XW-2C
1 40906U 15049H   18067.27233550 +.00000621 +00000-0 +36652-4 0  9992
2 40906 097.4602 072.6247 0015780 025.6863 334.5150 15.15043257136215
XW-2D
1 40907U 15049J   18067.43261548  .00000660  00000-0  38621-4 0  9990
2 40907  97.4574  72.4919 0015064  23.4282 336.7633 15.15183812136249
LILACSAT 2
1 40908U 15049K   18067.25347286 +.00000314 +00000-0 +21148-4 0  9997
2 40908 097.4683 071.8025 0016705 024.0330 336.1677 15.13423178136103
XW-2F
1 40910U 15049M   18067.45816985  .00001016  00000-0  55735-4 0  9998
2 40910  97.4581  73.6508 0015694  19.5278 340.6553 15.16303796136193
XW-2B
1 40911U 15049N   18067.44651987  .00000659  00000-0  38590-4 0  9999
2 40911  97.4612  73.0041 0014977  23.9248 336.2677 15.15131866136143
